| time (UTC) | temp C | wind direction | speed KPH | gust KPH | rain 1hr cm | rain 24hr cm | rain mn cm | humidity % | barometer mb |
| 20260505125004 | 18 | 6 | 3.2 | 9.7 | 0.00 | 0.00 | 0.00 | 55 | 1013.5 |
| 20260505124504 | 18 | 59 | 3.2 | 8.0 | 0.00 | 0.00 | 0.00 | 56 | 1013.4 |
| 20260505124004 | 18 | 49 | 1.6 | 8.0 | 0.00 | 0.00 | 0.00 | 57 | 1013.5 |
| 20260505123504 | 18 | 332 | 1.6 | 11.3 | 0.00 | 0.00 | 0.00 | 56 | 1013.4 |
| 20260505123004 | 18 | 350 | 3.2 | 11.3 | 0.00 | 0.00 | 0.00 | 56 | 1013.3 |
| 20260505122504 | 18 | 200 | 3.2 | 12.9 | 0.00 | 0.00 | 0.00 | 57 | 1013.3 |
| 20260505122005 | 18 | 258 | 4.8 | 14.5 | 0.00 | 0.00 | 0.00 | 58 | 1013.1 |
| 20260505121504 | 18 | 65 | 3.2 | 8.0 | 0.00 | 0.00 | 0.00 | 57 | 1013.1 |
| 20260505121005 | 17 | 348 | 3.2 | 11.3 | 0.00 | 0.00 | 0.00 | 59 | 1013.0 |
| 20260505120504 | 17 | 162 | 1.6 | 9.7 | 0.00 | 0.00 | 0.00 | 59 | 1013.0 |
| 20260505120004 | 17 | 241 | 4.8 | 11.3 | 0.00 | 0.00 | 0.00 | 59 | 1013.0 |
| 20260505115004 | 17 | 54 | 1.6 | 4.8 | 0.00 | 0.00 | 0.00 | 61 | 1013.0 |
| 20260505114504 | 17 | 218 | 4.8 | 14.5 | 0.00 | 0.00 | 0.00 | 61 | 1013.1 |
| 20260505114004 | 16 | 177 | 1.6 | 8.0 | 0.00 | 0.00 | 0.00 | 61 | 1013.0 |
| 20260505113504 | 16 | 184 | 0.0 | 4.8 | 0.00 | 0.00 | 0.00 | 62 | 1013.0 |
| 20260505113004 | 16 | 217 | 3.2 | 8.0 | 0.00 | 0.00 | 0.00 | 62 | 1013.0 |
| 20260505112504 | 16 | 203 | 1.6 | 9.7 | 0.00 | 0.00 | 0.00 | 62 | 1012.9 |
| 20260505111504 | 16 | 225 | 1.6 | 8.0 | 0.00 | 0.00 | 0.00 | 64 | 1012.7 |
| 20260505111004 | 16 | 236 | 1.6 | 4.8 | 0.00 | 0.00 | 0.00 | 64 | 1012.7 |
| 20260505110504 | 15 | 217 | 3.2 | 11.3 | 0.00 | 0.00 | 0.00 | 64 | 1012.6 |
| 20260505102004 | 15 | 188 | 1.6 | 11.3 | 0.00 | 0.00 | 0.00 | 66 | 1012.5 |
| 20260505101504 | 15 | 144 | 1.6 | 4.8 | 0.00 | 0.00 | 0.00 | 66 | 1012.4 |
| 20260505101004 | 15 | 290 | 1.6 | 4.8 | 0.00 | 0.00 | 0.00 | 66 | 1012.4 |
| 20260505100505 | 15 | 223 | 1.6 | 8.0 | 0.00 | 0.00 | 0.00 | 65 | 1012.2 |
| 20260505100004 | 15 | 192 | 3.2 | 9.7 | 0.00 | 0.00 | 0.00 | 65 | 1012.2 |
| 20260505095504 | 15 | 195 | 1.6 | 8.0 | 0.00 | 0.00 | 0.00 | 64 | 1012.2 |
| 20260505095004 | 15 | 254 | 1.6 | 8.0 | 0.00 | 0.00 | 0.00 | 65 | 1012.2 |
| 20260505094504 | 15 | 206 | 3.2 | 8.0 | 0.00 | 0.00 | 0.00 | 65 | 1012.0 |
| 20260505094004 | 15 | 192 | 4.8 | 9.7 | 0.00 | 0.00 | 0.00 | 64 | 1012.0 |
| 20260505093004 | 16 | 210 | 6.4 | 12.9 | 0.00 | 0.00 | 0.00 | 64 | 1011.9 |
| 20260505092504 | 15 | 198 | 6.4 | 14.5 | 0.00 | 0.00 | 0.00 | 64 | 1012.0 |
| 20260505092004 | 15 | 203 | 6.4 | 11.3 | 0.00 | 0.00 | 0.00 | 65 | 1012.0 |
| 20260505090505 | 15 | 199 | 6.4 | 11.3 | 0.00 | 0.00 | 0.00 | 64 | 1012.0 |
| 20260505085504 | 16 | 189 | 6.4 | 12.9 | 0.00 | 0.00 | 0.00 | 64 | 1011.9 |
| 20260505085004 | 16 | 204 | 4.8 | 11.3 | 0.00 | 0.00 | 0.00 | 63 | 1011.8 |
| 20260505084504 | 16 | 218 | 6.4 | 12.9 | 0.00 | 0.00 | 0.00 | 63 | 1011.8 |
| 20260505084004 | 15 | 206 | 6.4 | 14.5 | 0.00 | 0.00 | 0.00 | 63 | 1011.8 |
| 20260505083504 | 15 | 213 | 3.2 | 11.3 | 0.00 | 0.00 | 0.00 | 64 | 1011.9 |
| 20260505083004 | 15 | 193 | 1.6 | 11.3 | 0.00 | 0.00 | 0.00 | 64 | 1012.1 |
| 20260505082504 | 15 | 206 | 3.2 | 9.7 | 0.00 | 0.00 | 0.00 | 65 | 1012.0 |
| 20260505081504 | 16 | 188 | 3.2 | 11.3 | 0.00 | 0.00 | 0.00 | 63 | 1012.0 |
| 20260505081004 | 16 | 200 | 3.2 | 11.3 | 0.00 | 0.00 | 0.00 | 63 | 1012.1 |
| 20260505080505 | 16 | 252 | 1.6 | 4.8 | 0.00 | 0.00 | 0.00 | 63 | 1012.1 |
| 20260505080004 | 16 | 167 | 1.6 | 4.8 | 0.00 | 0.00 | 0.00 | 63 | 1011.9 |
| 20260505075504 | 16 | 201 | 1.6 | 4.8 | 0.00 | 0.00 | 0.00 | 62 | 1011.9 |
| 20260505075004 | 16 | 203 | 3.2 | 11.3 | 0.00 | 0.00 | 0.00 | 61 | 1012.0 |
| 20260505074504 | 16 | 205 | 4.8 | 9.7 | 0.00 | 0.00 | 0.00 | 61 | 1012.0 |
| 20260505074004 | 16 | 215 | 6.4 | 12.9 | 0.00 | 0.00 | 0.00 | 60 | 1012.0 |
| 20260505073504 | 16 | 208 | 4.8 | 9.7 | 0.00 | 0.00 | 0.00 | 60 | 1012.1 |
| 20260505072504 | 16 | 175 | 1.6 | 8.0 | 0.00 | 0.00 | 0.00 | 59 | 1011.9 |
| 20260505072004 | 16 | 190 | 3.2 | 12.9 | 0.00 | 0.00 | 0.00 | 58 | 1012.0 |
| 20260505071505 | 16 | 249 | 3.2 | 8.0 | 0.00 | 0.00 | 0.00 | 58 | 1012.0 |
| 20260505071004 | 16 | 78 | 3.2 | 11.3 | 0.00 | 0.00 | 0.00 | 59 | 1011.9 |
| 20260505070504 | 16 | 90 | 0.0 | 11.3 | 0.00 | 0.00 | 0.00 | 59 | 1012.0 |
| 20260505070004 | 16 | 190 | 3.2 | 9.7 | 0.00 | 0.00 | 0.00 | 59 | 1012.0 |
| 20260505065504 | 16 | 222 | 4.8 | 12.9 | 0.00 | 0.00 | 0.00 | 59 | 1012.0 |
| 20260505065004 | 16 | 216 | 4.8 | 9.7 | 0.00 | 0.00 | 0.00 | 59 | 1012.0 |
| 20260505064504 | 16 | 205 | 4.8 | 11.3 | 0.00 | 0.00 | 0.00 | 59 | 1012.0 |
| 20260505064004 | 16 | 214 | 4.8 | 12.9 | 0.00 | 0.00 | 0.00 | 59 | 1011.9 |
| 20260505063504 | 16 | 179 | 6.4 | 12.9 | 0.00 | 0.00 | 0.00 | 60 | 1012.0 |
| 20260505062504 | 16 | 191 | 6.4 | 11.3 | 0.00 | 0.00 | 0.00 | 60 | 1012.1 |
| 20260505062004 | 16 | 194 | 4.8 | 14.5 | 0.00 | 0.00 | 0.00 | 60 | 1012.1 |
| 20260505061504 | 16 | 210 | 4.8 | 12.9 | 0.00 | 0.00 | 0.00 | 58 | 1012.0 |
| 20260505061004 | 16 | 209 | 4.8 | 12.9 | 0.00 | 0.00 | 0.00 | 58 | 1011.9 |
| 20260505055004 | 16 | 202 | 4.8 | 11.3 | 0.00 | 0.00 | 0.00 | 59 | 1012.0 |
| 20260505054504 | 16 | 194 | 4.8 | 14.5 | 0.00 | 0.00 | 0.00 | 58 | 1012.1 |
| 20260505054004 | 16 | 216 | 4.8 | 9.7 | 0.00 | 0.00 | 0.00 | 58 | 1012.0 |
| 20260505053504 | 16 | 193 | 8.0 | 11.3 | 0.00 | 0.00 | 0.00 | 58 | 1011.9 |
| 20260505053004 | 16 | 189 | 6.4 | 12.9 | 0.00 | 0.00 | 0.00 | 57 | 1011.9 |
| 20260505052504 | 16 | 198 | 8.0 | 19.3 | 0.00 | 0.00 | 0.00 | 56 | 1012.0 |
| 20260505052004 | 16 | 216 | 8.0 | 14.5 | 0.00 | 0.00 | 0.00 | 57 | 1012.0 |
| 20260505051505 | 16 | 202 | 9.7 | 14.5 | 0.00 | 0.00 | 0.00 | 57 | 1012.0 |
| 20260505051004 | 16 | 210 | 8.0 | 16.1 | 0.00 | 0.00 | 0.00 | 56 | 1012.1 |
| 20260505050505 | 16 | 216 | 4.8 | 12.9 | 0.00 | 0.00 | 0.00 | 56 | 1012.1 |
| 20260505041504 | 16 | 218 | 8.0 | 12.9 | 0.00 | 0.00 | 0.00 | 52 | 1012.1 |
| 20260505041004 | 16 | 167 | 4.8 | 12.9 | 0.00 | 0.00 | 0.00 | 51 | 1012.0 |
| 20260505040505 | 16 | 202 | 6.4 | 12.9 | 0.00 | 0.00 | 0.00 | 51 | 1011.8 |
| 20260505040005 | 16 | 217 | 8.0 | 16.1 | 0.00 | 0.00 | 0.00 | 50 | 1011.8 |
| 20260505035505 | 16 | 201 | 8.0 | 14.5 | 0.00 | 0.00 | 0.00 | 50 | 1011.8 |
| 20260505035004 | 16 | 199 | 6.4 | 12.9 | 0.00 | 0.00 | 0.00 | 50 | 1011.8 |
| 20260505034504 | 16 | 197 | 8.0 | 12.9 | 0.00 | 0.00 | 0.00 | 50 | 1011.8 |
| 20260505034004 | 17 | 198 | 8.0 | 19.3 | 0.00 | 0.00 | 0.00 | 49 | 1011.8 |
| 20260505033504 | 17 | 213 | 9.7 | 14.5 | 0.00 | 0.00 | 0.00 | 49 | 1011.9 |
| 20260505033004 | 17 | 191 | 8.0 | 12.9 | 0.00 | 0.00 | 0.00 | 49 | 1011.9 |
| 20260505032504 | 17 | 205 | 4.8 | 12.9 | 0.00 | 0.00 | 0.00 | 48 | 1011.9 |
| 20260505032004 | 17 | 209 | 6.4 | 11.3 | 0.00 | 0.00 | 0.00 | 48 | 1012.0 |
| 20260505031504 | 17 | 197 | 8.0 | 16.1 | 0.00 | 0.00 | 0.00 | 47 | 1012.0 |
| 20260505030504 | 17 | 218 | 6.4 | 14.5 | 0.00 | 0.00 | 0.00 | 47 | 1012.0 |
| 20260505025504 | 17 | 203 | 8.0 | 14.5 | 0.00 | 0.00 | 0.00 | 47 | 1012.0 |
| 20260505025004 | 17 | 198 | 8.0 | 19.3 | 0.00 | 0.00 | 0.00 | 46 | 1011.9 |
| 20260505024504 | 17 | 205 | 8.0 | 12.9 | 0.00 | 0.00 | 0.00 | 46 | 1012.0 |
| 20260505023504 | 17 | 205 | 8.0 | 16.1 | 0.00 | 0.00 | 0.00 | 45 | 1012.2 |
| 20260505022504 | 17 | 210 | 6.4 | 12.9 | 0.00 | 0.00 | 0.00 | 46 | 1012.2 |
| 20260505022004 | 17 | 188 | 6.4 | 14.5 | 0.00 | 0.00 | 0.00 | 46 | 1012.2 |
| 20260505021504 | 17 | 216 | 8.0 | 19.3 | 0.00 | 0.00 | 0.00 | 45 | 1012.3 |
| 20260505021004 | 17 | 215 | 6.4 | 16.1 | 0.00 | 0.00 | 0.00 | 45 | 1012.2 |
| 20260505020504 | 17 | 209 | 6.4 | 12.9 | 0.00 | 0.00 | 0.00 | 46 | 1012.2 |
| 20260505020004 | 18 | 181 | 4.8 | 12.9 | 0.00 | 0.00 | 0.00 | 45 | 1012.2 |
| 20260505015504 | 18 | 211 | 4.8 | 14.5 | 0.00 | 0.00 | 0.00 | 44 | 1012.2 |
| 20260505014505 | 18 | 209 | 3.2 | 11.3 | 0.00 | 0.00 | 0.00 | 45 | 1012.1 |
| 20260505014004 | 18 | 212 | 4.8 | 12.9 | 0.00 | 0.00 | 0.00 | 46 | 1012.2 |
| 20260505013505 | 18 | 207 | 3.2 | 9.7 | 0.00 | 0.00 | 0.00 | 45 | 1012.2 |
| 20260505013004 | 18 | 211 | 4.8 | 14.5 | 0.00 | 0.00 | 0.00 | 45 | 1012.1 |
| 20260505012004 | 18 | 205 | 4.8 | 14.5 | 0.00 | 0.00 | 0.00 | 44 | 1012.1 |
| 20260505011504 | 18 | 218 | 6.4 | 14.5 | 0.00 | 0.00 | 0.00 | 44 | 1012.1 |
| 20260505011003 | 17 | 214 | 4.8 | 9.7 | 0.00 | 0.00 | 0.00 | 44 | 1012.0 |
| 20260505010504 | 18 | 213 | 4.8 | 11.3 | 0.00 | 0.00 | 0.00 | 45 | 1011.9 |
| 20260505010004 | 18 | 212 | 3.2 | 8.0 | 0.00 | 0.00 | 0.00 | 44 | 1011.8 |
| 20260505005504 | 18 | 205 | 4.8 | 11.3 | 0.00 | 0.00 | 0.00 | 44 | 1011.8 |
| 20260505004504 | 18 | 195 | 3.2 | 11.3 | 0.00 | 0.00 | 0.00 | 44 | 1011.7 |
| 20260505004004 | 18 | 199 | 1.6 | 4.8 | 0.00 | 0.00 | 0.00 | 44 | 1011.6 |
| 20260505003505 | 18 | 195 | 1.6 | 3.2 | 0.00 | 0.00 | 0.00 | 43 | 1011.6 |
| 20260505003004 | 18 | 218 | 1.6 | 4.8 | 0.00 | 0.00 | 0.00 | 43 | 1011.6 |
| 20260505002503 | 18 | 225 | 1.6 | 11.3 | 0.00 | 0.00 | 0.00 | 43 | 1011.6 |
| 20260505001504 | 18 | 210 | 3.2 | 4.8 | 0.00 | 0.00 | 0.00 | 42 | 1011.5 |
| 20260505001004 | 18 | 196 | 4.8 | 11.3 | 0.00 | 0.00 | 0.00 | 41 | 1011.5 |
| 20260505000504 | 19 | 225 | 3.2 | 8.0 | 0.00 | 0.00 | 0.00 | 41 | 1011.4 |
| 20260505000004 | 19 | 208 | 3.2 | 8.0 | 0.00 | 0.00 | 0.00 | 41 | 1011.4 |
| 20260504235004 | 19 | 184 | 3.2 | 9.7 | 0.00 | 0.00 | 0.00 | 40 | 1011.4 |
| 20260504234504 | 19 | 191 | 1.6 | 8.0 | 0.00 | 0.00 | 0.00 | 40 | 1011.4 |
| 20260504233504 | 20 | 207 | 3.2 | 8.0 | 0.00 | 0.00 | 0.00 | 39 | 1011.4 |
| 20260504233004 | 20 | 205 | 4.8 | 11.3 | 0.00 | 0.00 | 0.00 | 38 | 1011.4 |
| 20260504232506 | 20 | 190 | 1.6 | 14.5 | 0.00 | 0.00 | 0.00 | 39 | 1011.2 |
| 20260504232004 | 20 | 199 | 3.2 | 12.9 | 0.00 | 0.00 | 0.00 | 38 | 1011.3 |
| 20260504231504 | 20 | 192 | 4.8 | 12.9 | 0.00 | 0.00 | 0.00 | 37 | 1011.3 |
| 20260504231004 | 20 | 184 | 4.8 | 11.3 | 0.00 | 0.00 | 0.00 | 38 | 1011.3 |
| 20260504230504 | 20 | 198 | 8.0 | 14.5 | 0.00 | 0.00 | 0.00 | 37 | 1011.2 |
| 20260504230004 | 20 | 204 | 4.8 | 11.3 | 0.00 | 0.00 | 0.00 | 38 | 1011.3 |
| 20260504225504 | 20 | 200 | 1.6 | 11.3 | 0.00 | 0.00 | 0.00 | 38 | 1011.3 |
| 20260504225005 | 20 | 220 | 4.8 | 11.3 | 0.00 | 0.00 | 0.00 | 37 | 1011.2 |
| 20260504224503 | 20 | 205 | 3.2 | 11.3 | 0.00 | 0.00 | 0.00 | 37 | 1011.2 |
| 20260504224004 | 20 | 253 | 3.2 | 11.3 | 0.00 | 0.00 | 0.00 | 36 | 1011.3 |
| 20260504223504 | 20 | 166 | 1.6 | 9.7 | 0.00 | 0.00 | 0.00 | 38 | 1011.3 |
| 20260504223004 | 20 | 211 | 4.8 | 14.5 | 0.00 | 0.00 | 0.00 | 37 | 1011.4 |
| 20260504221504 | 21 | 188 | 8.0 | 16.1 | 0.00 | 0.00 | 0.00 | 37 | 1011.4 |
| 20260504221004 | 21 | 142 | 3.2 | 11.3 | 0.00 | 0.00 | 0.00 | 38 | 1011.5 |
| 20260504220504 | 21 | 200 | 4.8 | 12.9 | 0.00 | 0.00 | 0.00 | 37 | 1011.4 |
| 20260504220004 | 21 | 196 | 6.4 | 14.5 | 0.00 | 0.00 | 0.00 | 37 | 1011.4 |
| 20260504215504 | 20 | 185 | 1.6 | 14.5 | 0.00 | 0.00 | 0.00 | 38 | 1011.5 |
| 20260504214504 | 21 | 227 | 4.8 | 14.5 | 0.00 | 0.00 | 0.00 | 38 | 1011.5 |
| 20260504214004 | 21 | 239 | 3.2 | 9.7 | 0.00 | 0.00 | 0.00 | 38 | 1011.6 |
| 20260504213504 | 21 | 221 | 3.2 | 16.1 | 0.00 | 0.00 | 0.00 | 39 | 1011.5 |
| 20260504212504 | 21 | 201 | 1.6 | 8.0 | 0.00 | 0.00 | 0.00 | 38 | 1011.6 |
| 20260504212004 | 21 | 70 | 3.2 | 11.3 | 0.00 | 0.00 | 0.00 | 38 | 1011.6 |
| 20260504211504 | 21 | 233 | 4.8 | 20.9 | 0.00 | 0.00 | 0.00 | 38 | 1011.4 |
| 20260504211004 | 21 | 194 | 4.8 | 12.9 | 0.00 | 0.00 | 0.00 | 37 | 1011.5 |
| 20260504210004 | 21 | 232 | 3.2 | 14.5 | 0.00 | 0.00 | 0.00 | 38 | 1011.5 |
| 20260504205504 | 21 | 223 | 4.8 | 9.7 | 0.00 | 0.00 | 0.00 | 38 | 1011.5 |
| 20260504205004 | 21 | 340 | 3.2 | 9.7 | 0.00 | 0.00 | 0.00 | 38 | 1011.5 |
| 20260504204505 | 21 | 162 | 3.2 | 12.9 | 0.00 | 0.00 | 0.00 | 39 | 1011.5 |
| 20260504203504 | 21 | 179 | 3.2 | 12.9 | 0.00 | 0.00 | 0.00 | 38 | 1011.6 |
| 20260504203004 | 21 | 212 | 3.2 | 11.3 | 0.00 | 0.00 | 0.00 | 37 | 1011.6 |
| 20260504202504 | 21 | 178 | 3.2 | 9.7 | 0.00 | 0.00 | 0.00 | 38 | 1011.7 |
| 20260504202004 | 21 | 207 | 3.2 | 11.3 | 0.00 | 0.00 | 0.00 | 38 | 1011.7 |
| 20260504201504 | 21 | 211 | 3.2 | 16.1 | 0.00 | 0.00 | 0.00 | 38 | 1011.7 |
| 20260504201004 | 21 | 148 | 3.2 | 14.5 | 0.00 | 0.00 | 0.00 | 37 | 1011.7 |
| 20260504200505 | 21 | 258 | 3.2 | 11.3 | 0.00 | 0.00 | 0.00 | 38 | 1011.7 |
| 20260504195504 | 21 | 179 | 3.2 | 11.3 | 0.00 | 0.00 | 0.00 | 38 | 1011.9 |
| 20260504195004 | 21 | 258 | 4.8 | 12.9 | 0.00 | 0.00 | 0.00 | 37 | 1011.9 |
| 20260504194504 | 21 | 193 | 4.8 | 11.3 | 0.00 | 0.00 | 0.00 | 37 | 1011.8 |
| 20260504194004 | 21 | 289 | 3.2 | 12.9 | 0.00 | 0.00 | 0.00 | 36 | 1011.9 |
| 20260504193504 | 21 | 200 | 3.2 | 11.3 | 0.00 | 0.00 | 0.00 | 38 | 1012.0 |
| 20260504193004 | 21 | 198 | 6.4 | 14.5 | 0.00 | 0.00 | 0.00 | 37 | 1012.0 |
| 20260504192503 | 21 | 205 | 3.2 | 12.9 | 0.00 | 0.00 | 0.00 | 39 | 1012.1 |
| 20260504192004 | 21 | 200 | 4.8 | 16.1 | 0.00 | 0.00 | 0.00 | 38 | 1012.1 |
| 20260504191504 | 21 | 63 | 4.8 | 12.9 | 0.00 | 0.00 | 0.00 | 39 | 1012.2 |
| 20260504191004 | 21 | 228 | 6.4 | 14.5 | 0.00 | 0.00 | 0.00 | 39 | 1012.3 |
| 20260504190504 | 21 | 208 | 6.4 | 12.9 | 0.00 | 0.00 | 0.00 | 38 | 1012.2 |
| 20260504190004 | 21 | 345 | 6.4 | 14.5 | 0.00 | 0.00 | 0.00 | 38 | 1012.3 |
| 20260504185004 | 21 | 209 | 6.4 | 14.5 | 0.00 | 0.00 | 0.00 | 38 | 1012.4 |
| 20260504184504 | 21 | 178 | 4.8 | 12.9 | 0.00 | 0.00 | 0.00 | 37 | 1012.6 |
| 20260504184004 | 20 | 212 | 1.6 | 11.3 | 0.00 | 0.00 | 0.00 | 39 | 1012.7 |
| 20260504183504 | 20 | 209 | 11.3 | 19.3 | 0.00 | 0.00 | 0.00 | 38 | 1012.6 |
| 20260504183005 | 20 | 216 | 8.0 | 14.5 | 0.00 | 0.00 | 0.00 | 38 | 1012.7 |
| 20260504182504 | 20 | 244 | 9.7 | 16.1 | 0.00 | 0.00 | 0.00 | 37 | 1012.7 |
| 20260504182004 | 20 | 205 | 4.8 | 16.1 | 0.00 | 0.00 | 0.00 | 37 | 1012.9 |
| 20260504181504 | 20 | 230 | 3.2 | 11.3 | 0.00 | 0.00 | 0.00 | 37 | 1012.9 |
| 20260504180504 | 20 | 187 | 4.8 | 22.5 | 0.00 | 0.00 | 0.00 | 39 | 1013.1 |
| 20260504180004 | 20 | 208 | 4.8 | 11.3 | 0.00 | 0.00 | 0.00 | 37 | 1013.2 |
| 20260504175004 | 20 | 320 | 3.2 | 11.3 | 0.00 | 0.00 | 0.00 | 38 | 1013.2 |
| 20260504174504 | 20 | 348 | 1.6 | 9.7 | 0.00 | 0.00 | 0.00 | 39 | 1013.3 |
| 20260504174004 | 20 | 188 | 6.4 | 14.5 | 0.00 | 0.00 | 0.00 | 38 | 1013.4 |
| 20260504173504 | 20 | 254 | 3.2 | 12.9 | 0.00 | 0.00 | 0.00 | 39 | 1013.6 |
| 20260504173004 | 20 | 94 | 3.2 | 9.7 | 0.00 | 0.00 | 0.00 | 38 | 1013.5 |
| 20260504172004 | 20 | 324 | 4.8 | 11.3 | 0.00 | 0.00 | 0.00 | 37 | 1013.5 |
| 20260504171504 | 20 | 212 | 8.0 | 14.5 | 0.00 | 0.00 | 0.00 | 38 | 1013.6 |
| 20260504171004 | 19 | 182 | 3.2 | 14.5 | 0.00 | 0.00 | 0.00 | 38 | 1013.8 |
| 20260504170504 | 20 | 225 | 4.8 | 20.9 | 0.00 | 0.00 | 0.00 | 39 | 1013.9 |
| 20260504151004 | 18 | 212 | 4.8 | 11.3 | 0.00 | 0.00 | 0.00 | 43 | 1015.1 |
| 20260504150504 | 17 | 310 | 6.4 | 11.3 | 0.00 | 0.00 | 0.00 | 43 | 1015.2 |
| 20260504141004 | 15 | 210 | 8.0 | 14.5 | 0.00 | 0.00 | 0.00 | 52 | 1015.2 |
| 20260504140504 | 15 | 194 | 6.4 | 11.3 | 0.00 | 0.00 | 0.00 | 53 | 1015.2 |